Regional Weather Roundup
Issued by NWS Bismarck, ND

Home | Current Version | Previous Version | Text Only | Print | Product List | Glossary On
Versions: 1 2 3 4 5 6 7 8 9 10 11 12 13 14 15 16 17 18 19 20 21 22 23 24 25 26 27 28 29 30 31 32 33 34 35 36 37 38 39 40 41 42 43 44 45 46 47 48 49 50
000
ASUS43 KBIS 281602
RWRBIS

NWR BROADCAST TEXT
NATIONAL WEATHER SERVICE BISMARCK ND
1100 AM CDT FRI APR 28 2017

NOTE: "FAIR" INDICATES FEW OR NO CLOUDS BELOW 12,000 FEET WITH NO
SIGNIFICANT WEATHER AND/OR OBSTRUCTIONS TO VISIBILITY.


CITY           SKY/WX    TMP DP  RH WIND       PRES   REMARKS
WILLISTON      FAIR      49  27  42 SE6       30.04R
MINOT          FAIR      47  16  29 NW5       30.03R
MINOT AFB      FAIR      45  18  33 CALM      30.03R
BISMARCK       FAIR      47  16  29 NE7       30.03R
DICKINSON      FAIR      43  23  45 E9        29.98R
GARRISON         N/A     45  20  36 VRB7      30.03R
HETTINGER ARPT FAIR      43  28  55 E7        29.99R
JAMESTOWN      FAIR      44  23  43 NW13      29.99R
HAZEN          FAIR      45  25  45 VRB5      30.05R
LINTON           N/A     45  25  45 E9G16     30.02R
MANDAN         FAIR      43  23  45 VRB7G16   30.03R
STANLEY        FAIR      43  23  45 CALM      30.05R
TIOGA          FAIR      45  23  42 CALM      30.04R
WATFORD CITY   FAIR      46  25  42 VRB3      30.02S
$$

CITY           SKY/WX    TMP DP  RH WIND       PRES   REMARKS
GRAND FORKS    FAIR      44  27  51 NW17      29.98R
GRAND FORKS AF FAIR      44  22  42 N16       29.98R
DEVILS LAKE    FAIR      44  15  31 N14       30.00R
FARGO          FAIR      42  30  62 N10       29.99R
CAVALIER       FAIR      43  18  36 N20       29.98R
GRAFTON        FAIR      43  23  45 N14G22    30.00R
GWINNER        SUNNY     43  28  56 MISG      30.00R
LANGDON        FAIR      46  10  23 N17G24    29.98R
ROLLA          FAIR      43  10  26 N16G22    30.01R
$$

CITY           SKY/WX    TMP DP  RH WIND       PRES   REMARKS
ABERDEEN       FAIR      45  25  45 N17G24    29.98S
MOBRIDGE       FAIR      49  24  37 NE15      29.96R
BUFFALO          N/A     42  29  59 E13       29.90R
RAPID CITY     FAIR      41  28  60 E14       29.92R
GLASGOW        FAIR      47  20  34 CALM      30.00R
SIDNEY         FAIR      46  27  47 VRB5      30.03R
WOLF POINT     FAIR      48  25  40 E7        30.02R
GLENDIVE       FAIR      44  26  49 SE6       30.01R
MILES CITY     FAIR      46  28  49 SE6       29.97R
BAKER          FAIR      43  27  53 E13       29.99R
$$

CITY           SKY/WX    TMP DP  RH WIND       PRES   REMARKS
BILLINGS       CLOUDY    41  37  86 N12       29.95R
GREAT FALLS    CLOUDY    41  33  73 W7        30.01R
$$




USA.gov is the U.S. government's official web portal to all federal, state and local government web resources and services.